Location: Drocourt
(49.0571°N, 1.7669°E)
Time: 14:37:07
(UTC+00:00)

Vanguard 2 Rocket - Pass Details

Date: 16 April 2024
Orbit: 556 x 3304 km, 32.9° (Epoch: 22 May)

Event Time Altitude Azimuth Distance (km) Brightness Sun altitude
Rises 21:24:40 0° 216° (SW) 6,556 11.1 -22.1°
Reaches altitude 10° 21:29:21 10° 208° (SSW) 5,822 10.8 -22.6°
Maximum altitude 21:45:10 34° 152° (SSE) 4,529 9.8 -24.1°
Drops below altitude 10° 22:01:00 10° 97° (E) 5,866 10.7 -25.5°
Sets 22:05:41 0° 90° (E) 6,614 11.0 -25.9°
